Location: Cornospital
(48.0620°N, 3.3837°W)
Time: 19:32:59
(UTC+00:00)

Terra - Pass Details

Date: 17 June 2021
Orbit: 701 x 703 km, 98.2° (Epoch: 03 August)

Event Time Altitude Azimuth Distance (km) Brightness Sun altitude
Exits shadow 23:27:57 - 231° (SW) 2,268 4.2 -17.8°
Reaches altitude 10° 23:28:22 10° 235° (SW) 2,170 4.1 -17.8°
Maximum altitude 23:31:11 16° 271° (W) 1,827 4.1 -17.9°
Drops below altitude 10° 23:34:00 10° 308° (NW) 2,180 5.0 -18.0°
Sets 23:37:12 0° 331° (NNW) 3,105 6.5 -18.0°
